JST550 YMML-YMLT

Flight info

Callsign JST550
Flight time 0h 48m
Altitude 31000
Route ML H169 IRSOM W105 LT
Aircraft A20N/M-SDE2E3FGHIRWXY/LB1

Departure

Time 2026-05-06 04:46
Airport Melbourne Airport (YMML)

Arrival

Time 2026-05-06 05:35
Airport Launceston Airport (YMLT)
Time Latitude Longitude Altitude Speed Heading
2026-05-06 04:23 -37.67053 144.84672 360 ft 0 kts 171°
2026-05-06 04:35 -37.67042 144.84670 358 ft 2 kts 171°
2026-05-06 04:36 -37.67013 144.84666 358 ft 5 kts 194°
2026-05-06 04:36 -37.67000 144.84678 360 ft 0 kts 269°
2026-05-06 04:40 -37.67000 144.84668 353 ft 4 kts 268°
2026-05-06 04:40 -37.67006 144.84618 362 ft 7 kts 260°
2026-05-06 04:40 -37.67013 144.84552 359 ft 8 kts 265°
2026-05-06 04:40 -37.67020 144.84472 363 ft 9 kts 246°
2026-05-06 04:41 -37.67047 144.84398 366 ft 10 kts 258°
2026-05-06 04:41 -37.67056 144.84317 371 ft 8 kts 266°
2026-05-06 04:41 -37.67041 144.84251 373 ft 8 kts 313°
2026-05-06 04:41 -37.66992 144.84230 364 ft 8 kts 351°
2026-05-06 04:42 -37.66929 144.84219 373 ft 11 kts 352°
2026-05-06 04:42 -37.66839 144.84203 374 ft 15 kts 352°
2026-05-06 04:42 -37.66755 144.84187 375 ft 0 kts 352°
2026-05-06 04:42 -37.66725 144.84192 375 ft 8 kts 19°
2026-05-06 04:43 -37.66692 144.84269 370 ft 14 kts 80°
2026-05-06 04:43 -37.66674 144.84428 362 ft 22 kts 82°
2026-05-06 04:43 -37.66646 144.84658 349 ft 30 kts 82°
2026-05-06 04:43 -37.66637 144.84733 338 ft 9 kts 81°
2026-05-06 04:44 -37.66578 144.84801 333 ft 15 kts 10°
2026-05-06 04:44 -37.66468 144.84777 330 ft 18 kts 353°
2026-05-06 04:44 -37.66348 144.84782 328 ft 1 kts
2026-05-06 04:44 -37.66344 144.84782 329 ft 2 kts
2026-05-06 04:45 -37.66315 144.84781 329 ft 6 kts 356°
2026-05-06 04:45 -37.66249 144.84766 330 ft 12 kts 337°
2026-05-06 04:45 -37.66222 144.84715 331 ft 0 kts 268°
2026-05-06 04:45 -37.66222 144.84714 331 ft 0 kts 272°
2026-05-06 04:46 -37.66210 144.84516 354 ft 56 kts 274°
2026-05-06 04:46 -37.66163 144.83742 395 ft 118 kts 275°
2026-05-06 04:46 -37.66101 144.82512 602 ft 148 kts 280°
2026-05-06 04:46 -37.66032 144.81237 1318 ft 145 kts 279°
2026-05-06 04:47 -37.65950 144.79991 2105 ft 139 kts 279°
2026-05-06 04:47 -37.65865 144.78717 2628 ft 153 kts 279°
2026-05-06 04:47 -37.65770 144.77296 3019 ft 173 kts 277°
2026-05-06 04:47 -37.65668 144.75745 3593 ft 179 kts 277°
2026-05-06 04:48 -37.65570 144.74199 4315 ft 177 kts 276°
2026-05-06 04:48 -37.65467 144.72659 5058 ft 175 kts 275°
2026-05-06 04:48 -37.65455 144.71114 5696 ft 177 kts 265°
2026-05-06 04:48 -37.65779 144.69598 6293 ft 182 kts 247°
2026-05-06 04:49 -37.66551 144.68301 6835 ft 191 kts 226°
2026-05-06 04:49 -37.67710 144.67408 7369 ft 199 kts 210°
2026-05-06 04:49 -37.68980 144.66682 7861 ft 202 kts 213°
2026-05-06 04:49 -37.70278 144.65876 8268 ft 215 kts 214°
2026-05-06 04:50 -37.71597 144.64921 8644 ft 230 kts 219°
2026-05-06 04:50 -37.73149 144.64009 9013 ft 262 kts 199°
2026-05-06 04:50 -37.75051 144.64002 9497 ft 294 kts 172°
2026-05-06 04:50 -37.76987 144.65036 10308 ft 310 kts 156°
2026-05-06 04:51 -37.78914 144.66490 10693 ft 336 kts 152°
2026-05-06 04:51 -37.80957 144.68144 11052 ft 358 kts 151°
2026-05-06 04:51 -37.83086 144.69851 11785 ft 365 kts 152°
2026-05-06 04:51 -37.85262 144.71552 12619 ft 370 kts 153°
2026-05-06 04:52 -37.87484 144.73253 13423 ft 376 kts 153°
2026-05-06 04:52 -37.89748 144.74965 14185 ft 382 kts 153°
2026-05-06 04:52 -37.92062 144.76708 14820 ft 390 kts 153°
2026-05-06 04:52 -37.94415 144.78479 15554 ft 394 kts 153°
2026-05-06 04:53 -37.96789 144.80268 16274 ft 399 kts 153°
2026-05-06 04:53 -37.99191 144.82081 16962 ft 404 kts 153°
2026-05-06 04:53 -38.01595 144.83895 17651 ft 409 kts 153°
2026-05-06 04:53 -38.04053 144.85754 18344 ft 414 kts 153°
2026-05-06 04:54 -38.06543 144.87637 18955 ft 418 kts 153°
2026-05-06 04:54 -38.09056 144.89539 19564 ft 422 kts 153°
2026-05-06 04:54 -38.11593 144.91461 20180 ft 426 kts 153°
2026-05-06 04:54 -38.14154 144.93402 20786 ft 431 kts 153°
2026-05-06 04:55 -38.16737 144.95363 21313 ft 432 kts 153°
2026-05-06 04:55 -38.19335 144.97336 21594 ft 439 kts 153°
2026-05-06 04:55 -38.21970 144.99339 22258 ft 441 kts 153°
2026-05-06 04:55 -38.24618 145.01352 22831 ft 446 kts 152°
2026-05-06 04:56 -38.27299 145.03390 23362 ft 451 kts 152°
2026-05-06 04:56 -38.29973 145.05429 23873 ft 455 kts 152°
2026-05-06 04:56 -38.32701 145.07511 24388 ft 458 kts 152°
2026-05-06 04:56 -38.35457 145.09615 24861 ft 462 kts 152°
2026-05-06 04:57 -38.38222 145.11727 25322 ft 465 kts 152°
2026-05-06 04:57 -38.41008 145.13858 25775 ft 469 kts 152°
2026-05-06 04:57 -38.43791 145.15987 26232 ft 472 kts 152°
2026-05-06 04:57 -38.46620 145.18154 26658 ft 476 kts 152°
2026-05-06 04:58 -38.49485 145.20322 27095 ft 478 kts 155°
2026-05-06 04:58 -38.52503 145.22099 27512 ft 477 kts 163°
2026-05-06 04:58 -38.55644 145.23480 27904 ft 479 kts 165°
2026-05-06 04:58 -38.58810 145.24865 28298 ft 482 kts 165°
2026-05-06 04:59 -38.61955 145.26251 28675 ft 485 kts 165°
2026-05-06 04:59 -38.65159 145.27664 29013 ft 489 kts 165°
2026-05-06 04:59 -38.68389 145.29090 29356 ft 493 kts 165°
2026-05-06 04:59 -38.71640 145.30526 29709 ft 496 kts 165°
2026-05-06 05:00 -38.74909 145.31971 30054 ft 499 kts 165°
2026-05-06 05:00 -38.78199 145.33426 30346 ft 501 kts 165°
2026-05-06 05:00 -38.81509 145.34892 30677 ft 504 kts 165°
2026-05-06 05:00 -38.84836 145.36366 30943 ft 507 kts 165°
2026-05-06 05:01 -38.88177 145.37849 31009 ft 507 kts 165°
2026-05-06 05:01 -38.94802 145.40793 31006 ft 506 kts 165°
2026-05-06 05:02 -39.01467 145.43760 31007 ft 506 kts 165°
2026-05-06 05:02 -39.08132 145.46732 31003 ft 506 kts 165°
2026-05-06 05:03 -39.14800 145.49711 31000 ft 507 kts 165°
2026-05-06 05:03 -39.20358 145.52199 31000 ft 508 kts 165°
2026-05-06 05:04 -39.28130 145.55685 30995 ft 509 kts 165°
2026-05-06 05:04 -39.33748 145.58211 30993 ft 509 kts 165°
2026-05-06 05:05 -39.40404 145.61209 30995 ft 510 kts 165°
2026-05-06 05:05 -39.47113 145.64236 30995 ft 510 kts 165°
2026-05-06 05:06 -39.53825 145.67271 30994 ft 510 kts 165°
2026-05-06 05:06 -39.60535 145.70311 30987 ft 511 kts 164°
2026-05-06 05:07 -39.67203 145.73339 30973 ft 511 kts 165°
2026-05-06 05:07 -39.73919 145.76394 30967 ft 511 kts 164°
2026-05-06 05:08 -39.80642 145.79459 30974 ft 512 kts 164°
2026-05-06 05:08 -39.87369 145.82532 30962 ft 512 kts 164°
2026-05-06 05:09 -39.94056 145.85594 30960 ft 512 kts 164°
2026-05-06 05:09 -40.00796 145.88685 30986 ft 512 kts 164°
2026-05-06 05:10 -40.07494 145.91783 30945 ft 513 kts 164°
2026-05-06 05:10 -40.14212 145.94903 30951 ft 513 kts 164°
2026-05-06 05:11 -40.20947 145.98034 30940 ft 513 kts 164°
2026-05-06 05:11 -40.27682 146.01171 30937 ft 514 kts 164°
2026-05-06 05:12 -40.34438 146.04324 30936 ft 514 kts 164°
2026-05-06 05:12 -40.41178 146.07477 30928 ft 514 kts 164°
2026-05-06 05:13 -40.47921 146.10638 30926 ft 515 kts 164°
2026-05-06 05:13 -40.54621 146.13785 30600 ft 512 kts 163°
2026-05-06 05:13 -40.57966 146.15360 30089 ft 509 kts 163°
2026-05-06 05:14 -40.61287 146.16925 29468 ft 504 kts 163°
2026-05-06 05:14 -40.64579 146.18477 28836 ft 499 kts 163°
2026-05-06 05:14 -40.67845 146.20019 28207 ft 494 kts 163°
2026-05-06 05:14 -40.71065 146.21541 27554 ft 491 kts 163°
2026-05-06 05:15 -40.74271 146.23057 26941 ft 487 kts 163°
2026-05-06 05:15 -40.77409 146.24542 26365 ft 482 kts 163°
2026-05-06 05:15 -40.80550 146.26032 25787 ft 478 kts 163°
2026-05-06 05:15 -40.83669 146.27511 25212 ft 474 kts 163°
2026-05-06 05:16 -40.86754 146.28976 24662 ft 470 kts 163°
2026-05-06 05:16 -40.89819 146.30434 24115 ft 466 kts 163°
2026-05-06 05:16 -40.92861 146.31880 23568 ft 462 kts 163°
2026-05-06 05:16 -40.95881 146.33318 22904 ft 460 kts 163°
2026-05-06 05:17 -40.98872 146.34745 22342 ft 455 kts 163°
2026-05-06 05:17 -41.01837 146.36161 21765 ft 450 kts 163°
2026-05-06 05:17 -41.04772 146.37563 21189 ft 446 kts 163°
2026-05-06 05:17 -41.07642 146.38936 20636 ft 442 kts 164°
2026-05-06 05:18 -41.10556 146.40331 20074 ft 438 kts 164°
2026-05-06 05:18 -41.13409 146.41698 19533 ft 434 kts 163°
2026-05-06 05:18 -41.16082 146.43465 18993 ft 436 kts 147°
2026-05-06 05:18 -41.18336 146.46144 18404 ft 436 kts 129°
2026-05-06 05:19 -41.20065 146.49425 17834 ft 432 kts 121°
2026-05-06 05:19 -41.21668 146.52803 17281 ft 427 kts 120°
2026-05-06 05:19 -41.23234 146.56140 16740 ft 423 kts 121°
2026-05-06 05:19 -41.24799 146.59450 16195 ft 420 kts 121°
2026-05-06 05:20 -41.26357 146.62714 15670 ft 416 kts 122°
2026-05-06 05:20 -41.27891 146.65907 15131 ft 413 kts 122°
2026-05-06 05:20 -41.29440 146.69124 14623 ft 410 kts 122°
2026-05-06 05:20 -41.30973 146.72309 14144 ft 407 kts 122°
2026-05-06 05:21 -41.32492 146.75468 13660 ft 404 kts 122°
2026-05-06 05:21 -41.34003 146.78611 13149 ft 400 kts 122°
2026-05-06 05:21 -41.35496 146.81725 12564 ft 397 kts 122°
2026-05-06 05:21 -41.36957 146.84770 12050 ft 393 kts 122°
2026-05-06 05:22 -41.38444 146.87853 11528 ft 389 kts 123°
2026-05-06 05:22 -41.39878 146.90845 11012 ft 386 kts 122°
2026-05-06 05:22 -41.41316 146.93859 10517 ft 383 kts 123°
2026-05-06 05:22 -41.42726 146.96818 10334 ft 370 kts 123°
2026-05-06 05:23 -41.43972 146.99737 10201 ft 357 kts 113°
2026-05-06 05:23 -41.44844 147.02777 10064 ft 343 kts 108°
2026-05-06 05:23 -41.46290 147.08651 9501 ft 332 kts 106°
2026-05-06 05:24 -41.46985 147.11539 9153 ft 328 kts 107°
2026-05-06 05:24 -41.47875 147.14338 8717 ft 328 kts 120°
2026-05-06 05:24 -41.49239 147.16749 8274 ft 324 kts 137°
2026-05-06 05:24 -41.50943 147.18664 7927 ft 317 kts 149°
2026-05-06 05:25 -41.52791 147.20227 7512 ft 313 kts 155°
2026-05-06 05:25 -41.54687 147.21600 7263 ft 304 kts 157°
2026-05-06 05:25 -41.56521 147.22910 7147 ft 294 kts 152°
2026-05-06 05:25 -41.58219 147.24343 7018 ft 284 kts 152°
2026-05-06 05:26 -41.59887 147.25746 6691 ft 283 kts 152°
2026-05-06 05:26 -41.61552 147.27150 6327 ft 283 kts 152°
2026-05-06 05:26 -41.63250 147.28477 5947 ft 279 kts 164°
2026-05-06 05:26 -41.65100 147.28874 5563 ft 263 kts 193°
2026-05-06 05:27 -41.66717 147.28131 5237 ft 240 kts 223°
2026-05-06 05:27 -41.67845 147.26637 5015 ft 220 kts 237°
2026-05-06 05:27 -41.68859 147.25096 4678 ft 224 kts 230°
2026-05-06 05:27 -41.70311 147.24215 4289 ft 242 kts 191°
2026-05-06 05:28 -41.71979 147.24724 3900 ft 257 kts 152°
2026-05-06 05:28 -41.73176 147.26524 3527 ft 265 kts 112°
2026-05-06 05:28 -41.73396 147.28897 3166 ft 254 kts 71°
2026-05-06 05:28 -41.72651 147.30914 3009 ft 239 kts 45°
2026-05-06 05:29 -41.71578 147.32590 3024 ft 234 kts 32°
2026-05-06 05:29 -41.70178 147.33416 3031 ft 212 kts 357°
2026-05-06 05:29 -41.68843 147.33203 3214 ft 180 kts 336°
2026-05-06 05:29 -41.67771 147.32580 3215 ft 159 kts 326°
2026-05-06 05:30 -41.66882 147.31860 3204 ft 139 kts 321°
2026-05-06 05:30 -41.66125 147.31193 3178 ft 125 kts 321°
2026-05-06 05:30 -41.65406 147.30567 3005 ft 120 kts 321°
2026-05-06 05:30 -41.64746 147.29996 2829 ft 106 kts 320°
2026-05-06 05:31 -41.64109 147.29434 2687 ft 113 kts 321°
2026-05-06 05:31 -41.63462 147.28877 2532 ft 109 kts 321°
2026-05-06 05:31 -41.62825 147.28322 2362 ft 109 kts 322°
2026-05-06 05:31 -41.62202 147.27782 2214 ft 105 kts 324°
2026-05-06 05:32 -41.61598 147.27256 2078 ft 106 kts 323°
2026-05-06 05:32 -41.60961 147.26703 1932 ft 108 kts 323°
2026-05-06 05:32 -41.60333 147.26158 1786 ft 107 kts 323°
2026-05-06 05:32 -41.59723 147.25629 1634 ft 105 kts 326°
2026-05-06 05:33 -41.59112 147.25099 1475 ft 100 kts 326°
2026-05-06 05:33 -41.58497 147.24566 1361 ft 116 kts 326°
2026-05-06 05:33 -41.57816 147.23976 1194 ft 115 kts 326°
2026-05-06 05:33 -41.57188 147.23432 1046 ft 100 kts 326°
2026-05-06 05:34 -41.56589 147.22911 900 ft 107 kts 327°
2026-05-06 05:34 -41.55986 147.22379 768 ft 103 kts 326°
2026-05-06 05:34 -41.55375 147.21849 628 ft 108 kts 327°
2026-05-06 05:34 -41.54779 147.21351 563 ft 86 kts 324°
2026-05-06 05:35 -41.54544 147.21130 565 ft 13 kts 325°
2026-05-06 05:35 -41.54398 147.21010 561 ft 35 kts 329°
2026-05-06 05:35 -41.54288 147.20886 559 ft 7 kts 282°
2026-05-06 05:35 -41.54316 147.20797 559 ft 14 kts 238°
2026-05-06 05:36 -41.54304 147.20735 559 ft 6 kts 319°
2026-05-06 05:36 -41.54273 147.20701 561 ft 1 kts 311°
2026-05-06 05:36 -41.54262 147.20646 557 ft 10 kts 281°
2026-05-06 05:36 -41.54236 147.20590 558 ft 4 kts 346°
2026-05-06 05:37 -41.54232 147.20589 563 ft 0 kts 347°